This demonstration page uses our WeatherBlox Daily Observations layout. Learn more.

Left ArrowRight Arrow

31.31129, -92.44514

Hourly Observations for August 3, 2016

Temp ( °F °C ) Dew Point ( °F °C ) Humidity (%) Winds ( mph kmh ) Pressure ( in mb ) Visibility ( mi km ) Precip ( " mm )
12:53 am 00:53 Clear 80 26.7 77 25 90 90 SSE 5 7 30.00 1016 8 13 0.00 0.00
1:53 am 01:53 Clear 79 26.1 77 25 94 94 Calm 30.00 1016 8 13 0.00 0.00
2:53 am 02:53 Clear 78 25.6 77 25 97 97 WNW 3 6 30.00 1016 8 13 0.00 0.00
3:53 am 03:53 Clear 79 26.1 77 25 94 94 Calm 30.01 1016 8 13 0.00 0.00
4:53 am 04:53 Clear 78 25.6 76 24.4 93 93 Calm 30.01 1016 7 11 0.00 0.00
5:53 am 05:53 Clear 77 25 76 24.4 96 96 Calm 30.02 1017 8 13 0.00 0.00
6:53 am 06:53 Sunny 77 25 76 24.4 96 96 Calm 30.03 1017 7 11 0.00 0.00
7:53 am 07:53 Sunny 80 26.7 77 25 90 90 W 5 7 30.04 1017 8 13 0.00 0.00
8:53 am 08:53 Sunny 84 28.9 78 25.6 82 82 W 6 9 30.05 1018 7 11 0.00 0.00
9:53 am 09:53 Sunny 88 31.1 78 25.6 73 73 WNW 7 11 30.04 1017 10 16 0.00 0.00
10:53 am 10:53 Sunny 90 32.2 78 25.6 68 68 N 5 7 30.04 1017 10 16 0.00 0.00
11:53 am 11:53 Sunny 91 32.8 77 25 64 64 VRB 3 6 30.04 1017 10 16 0.00 0.00
12:53 pm 12:53 Mostly Cloudy 94 34.4 78 25.6 60 60 NW 3 6 30.03 1017 10 16 0.00 0.00
1:53 pm 13:53 Sunny 95 35 75 23.9 53 53 Calm 30.00 1016 10 16 0.00 0.00
2:53 pm 14:53 Sunny 96 35.6 74 23.3 49 49 Calm 29.97 1015 10 16 0.00 0.00
3:53 pm 15:53 Sunny 96 35.6 74 23.3 49 49 VRB 3 6 29.95 1014 10 16 0.00 0.00
4:53 pm 16:53 Sunny 96 35.6 74 23.3 49 49 NNE 6 9 29.93 1014 10 16 0.00 0.00
5:53 pm 17:53 Sunny 93 33.9 73 22.8 52 52 ENE 3 6 29.92 1013 10 16 0.00 0.00
6:53 pm 18:53 Sunny 94 34.4 74 23.3 52 52 NE 3 6 29.91 1013 10 16 0.00 0.00
7:53 pm 19:53 Sunny 88 31.1 78 25.6 73 73 SSE 5 7 29.92 1013 9 14 0.00 0.00
8:53 pm 20:53 Clear 85 29.4 79 26.1 82 82 SSE 3 6 29.92 1013 10 16 0.00 0.00
9:53 pm 21:53 Clear 83 28.3 79 26.1 88 88 S 3 6 29.94 1014 9 14 0.00 0.00
10:53 pm 22:53 Clear 82 27.8 79 26.1 90 90 S 3 6 29.95 1014 8 13 0.00 0.00
11:53 pm 23:53 Clear 82 27.8 78 25.6 88 88 S 5 7 29.95 1014 8 13 0.00 0.00

Powered by AerisWeather